Regional Weather Roundup
Issued by NWS

Home | Current Version | Previous Version | Graphics & Text | Print | Product List | Glossary On
Versions: 1 2 3 4 5 6 7 8 9 10 11 12 13 14 15 16 17 18 19 20 21 22 23 24 25 26 27 28 29 30 31 32 33 34 35 36 37 38 39 40 41 42 43 44 45 46 47 48 49 50
000
ASUS43 KMKX 261900
RWRWI

WISCONSIN REGIONAL WEATHER ROUNDUP
NATIONAL WEATHER SERVICE MILWAUKEE/SULLIVAN WI
200 PM CDT SUN APR 26 2015

NOTE: "FAIR" INDICATES FEW OR NO CLOUDS BELOW 12,000 FEET WITH NO
SIGNIFICANT WEATHER AND/OR OBSTRUCTIONS TO VISIBILITY.

WIZ001-002-006>008-014>016-023>028-262000-
NORTHWEST WISCONSIN

CITY           SKY/WX    TMP DP  RH WIND       PRES   REMARKS
SUPERIOR ARPT  SUNNY     46  27  48 NE8       30.19S
ASHLAND        SUNNY     50  30  46 NE13      30.19S
HAYWARD        SUNNY     56  17  21 N13G20    30.12F
SIREN          SUNNY     58  21  24 E8        30.13S
CUMBERLAND     SUNNY     54  18  24 NE3       30.11F
RICE LAKE      SUNNY     56  21  25 N5        30.12F
CHETEK         SUNNY     56  21  25 NW3       30.10F
LADYSMITH      SUNNY     58  23  25 N8        30.11F
EAU CLAIRE     NOT AVBL
MENOMONIE      SUNNY     59  14  16 N6        30.10F
NEW RICHMOND   SUNNY     57  19  22 N7        30.12S
OSCEOLA        SUNNY     58  23  25 E8        30.14F
$$

WIZ003>005-009-010-017-018-262000-
NORTH CENTRAL WISCONSIN

CITY           SKY/WX    TMP DP  RH WIND       PRES   REMARKS
MANITOWISH WTR SUNNY     54  24  31 N9G16     30.09F
ARBOR VITAE    SUNNY     57  20  23 N9G24     30.08F
WOODRUFF       SUNNY     57  20  23 N9G24     30.08F
RHINELANDER    SUNNY     56  18  22 N8        30.06F
EAGLE RIVER    SUNNY     54  18  23 N10G20    30.07S
LAND O LAKES   SUNNY     53  23  30 N9        30.09S
PHILLIPS       SUNNY     56  23  28 N12       30.08F
TOMAHAWK       SUNNY     56  17  21 N10G16    30.07F
MEDFORD        SUNNY     55  24  29 NW6       30.07F
MERRILL        SUNNY     57  21  25 NE5G17    30.06F
$$

WIZ029-030-035-036-043>047-262000-
CENTRAL WISCONSIN

CITY           SKY/WX    TMP DP  RH WIND       PRES   REMARKS
WAUSAU         SUNNY     59  19  21 NW13G18   30.03F
MOSINEE        SUNNY     57  21  24 NW7       30.06F
MARSHFIELD     SUNNY     59  25  27 MISG      30.06F
STEVENS POINT  SUNNY     56  21  25 N8G17     30.05F
WAUPACA        SUNNY     61  22  22 NE5       30.04F
WAUTOMA        NOT AVBL
WISC RAPIDS    SUNNY     59  19  21 NE10      30.07F
CAMP DOUGLAS   NOT AVBL
$$

WIZ011>013-019>022-031-037>040-048>050-262000-
NORTHEAST WISCONSIN

CITY           SKY/WX    TMP DP  RH WIND       PRES   REMARKS
ANTIGO         SUNNY     56  23  27 NW8       30.05S
SHAWANO        SUNNY     61  17  18 NE5       30.03F
OCONTO         SUNNY     52  24  33 E10       30.05S
STURGEON BAY   SUNNY     54  25  32 N12       30.07F
GREEN BAY      SUNNY     56  26  31 SE9       30.04F
MANITOWOC      NOT AVBL
APPLETON       SUNNY     55  19  24 NE7G14    30.04F
CLINTONVILLE   SUNNY     59  19  21 NW3       30.03F
OSHKOSH        SUNNY     55  26  32 E9        30.04F
$$

WIZ032>034-041-042-053>061-262000-
SOUTHWEST WISCONSIN

CITY           SKY/WX    TMP DP  RH WIND       PRES   REMARKS
LA CROSSE      SUNNY     61  25  25 W12       30.07F
SPARTA         SUNNY     58  19  21 NW5       30.07F
VIROQUA        SUNNY     56  25  29 NE7       30.07S
BOSCOBEL       SUNNY     60  24  25 E9        30.06F
PRAIRIE DU CHI SUNNY     57  24  27 SW5       30.06F
PLATTEVILLE    SUNNY     55  28  35 NE9       30.06F
$$

WIZ056-057-062-063-064-067-068-262000-
SOUTH CENTRAL WISCONSIN

CITY           SKY/WX    TMP DP  RH WIND       PRES   REMARKS
REEDSBURG      SUNNY     56  27  32 NE8       30.05F
BARABOO/DELLS  SUNNY     55  22  26 N7        30.05F
LONE ROCK      NOT AVBL
MINERAL POINT  SUNNY     55  23  28 CALM      30.06S
MADISON        MOSUNNY   58  27  30 N14G20    30.05F
MIDDLETON      SUNNY     56  24  29 N10       30.05F
WATERTOWN      SUNNY     56  28  34 N6        30.03S
MONROE         SUNNY     54  30  40 N12G17    30.04F
JANESVILLE     SUNNY     57  25  28 N12G17    30.03F
$$

WIZ051-052-058>065-066-070>072-262000-
SOUTHEAST WISCONSIN

CITY           SKY/WX    TMP DP  RH WIND       PRES   REMARKS
MILWAUKEE      MOSUNNY   47  32  56 NE13      30.05S
WAUKESHA       MOSUNNY   55  27  33 N9G17     30.03S
MILWAUKEE/TIMM NOT AVBL
RACINE         SUNNY     49  31  49 NE14      30.05S
BURLINGTON     SUNNY     56  27  33 N12G18    30.01F
KENOSHA        SUNNY     56  29  35 NE16      30.02F
FOND DU LAC    SUNNY     58  26  29 NE14      30.04F
SHEBOYGAN      SUNNY     54  30  40 E13       30.04F
WEST BEND      MOSUNNY   54  28  37 NE9       30.02F
JUNEAU         SUNNY     55  27  33 NE10G16   30.05S
$$

LSZ147-162-262000-
LAKE SUPERIOR

STATION/POSITION TIME  TEMP    WIND        PRES    WAVE
                       AIR SEA DIR/SP/G            HT/PER
                 (UTC) (F)     (DEG/KT/KT) (MB)    (FT/S)
W MID LAKE BUOY  1750   36 35   60/ 12/ 14 1023.8F   1/ 3
DEVILS ISLAND    1800   37      90/  5/  5 1023.6F
PORT WING        1800   39      20/  8/ 10 1022.7
SAXON HARBOR     1800   39      20/  4/  5 1022.4S
$$

LMZ867-665-643>646-262000-
LAKE MICHIGAN

STATION/POSITION TIME  TEMP    WIND        PRES    WAVE
                       AIR SEA DIR/SP/G            HT/PER
                 (UTC) (F)     (DEG/KT/KT) (MB)    (FT/S)
CHAMBERS ISLAND  1800   46      40/ 11/ 16 1017.9F
NORTHPORT PIER   1800   44     340/ 10/ 12 1017.9F
SISTER BAY       1632   47     360/ 15/ 18   N/A
KEWAUNEE LAKESHO 1800   43      50/  7/  9 1017.3F
SHEBOYGAN LAKESH 1800   39      50/  9/ 10 1018.6F
PORT WASHINGTON  1840   43      50/ 10/ 13 1017.9F
MILWAUKEE LAKESH 1800   39      40/ 12/ 14   N/A
KENOSHA   LAKESH 1800   41      30/ 14/ 16 1016.9F
$$

TC  - TEMPERATURE IN CELSIUS
VSB - VISIBILITY IN STATUTE MILES
WCI - WIND CHILL INDEX
HX  - HEAT INDEX



USA.gov is the U.S. government's official web portal to all federal, state and local government web resources and services.